Weather History for San Luis Potosi, Mexico

Change the Weather History Date:

Friday, October 26, 2012

  Actual Average Record
Temperature  
Mean Temperature 64 °F -  
Max Temperature 81 °F 71 °F 86 °F (2010)
Min Temperature 47 °F 44 °F 33 °F (1999)
Degree Days  
Heating Degree Days 1    
Growing Degree Days 14 (Base 50)    
Moisture  
Dew Point 46 °F    
Average Humidity 52    
Maximum Humidity 100    
Minimum Humidity 10    
Precipitation  
Precipitation 0.00 in - - ()
Sea Level Pressure  
Sea Level Pressure 29.99 in    
Wind  
Wind Speed 5 mph ()    
Max Wind Speed 14 mph    
Max Gust Speed -    
Visibility 10.9 miles    
Events      
Averages and records for this station are not official NWS values.
T = Trace of Precipitation, MM = Missing Value Source: Averaged Metar Reports

Daily Weather History Graph

Daily Weather History Graph

Search for Another Location

Airport:

Trip Planner

Search our weather history database for the weather conditions in past years. The results will help you decide how hot, cold, wet, or windy it might be!

Date:

Astronomy

Oct. 26, 2012 Rise Set
Actual Time 7:45 AM CDT 7:09 PM CDT
Civil Twilight 7:22 AM CDT 7:32 PM CDT
Nautical Twilight 6:55 AM CDT 7:59 PM CDT
Astronomical Twilight 6:29 AM CDT 8:25 PM CDT
Moon 5:12 PM CDT (10/26) 5:00 AM CDT (10/26)
Length of Visible Light 12h 10m
Length of Day
11h 24m
Waxing Gibbous, 91% of the Moon is Illuminated
Oct 26
Waxing Gibbous
Oct 29
Full
Nov 6
Last Quarter
Nov 13
New
Nov 20
First Quarter

Hourly Weather History & Observations

Time (CDT) Temp. Dew Point Humidity Pressure Visibility Wind Dir Wind Speed Gust Speed Precip Events Conditions
12:50 AM 60 °F 50 °F 60% 29.74 in 5 mi North 2.2 mph - -  
1:01 AM 66.2 °F 44.6 °F 46% 29.69 in 10.0 mi SE 4.6 mph - N/A   Clear
1:47 AM 66.2 °F 46.4 °F 49% 30.12 in 10.0 mi SE 9.2 mph - N/A   Clear
2:50 AM 66.2 °F 46.4 °F 49% 30.10 in 10.0 mi SE 6.9 mph - N/A   Clear
3:44 AM 62.6 °F 42.8 °F 48% 29.65 in 10.0 mi ESE 4.6 mph - N/A   Clear
4:40 AM 59.0 °F 44.6 °F 59% 30.11 in 8.0 mi ENE 6.9 mph - N/A   Clear
5:46 AM 55.4 °F 46.4 °F 72% 30.11 in 8.0 mi Calm Calm - N/A   Clear
6:44 AM 51.8 °F 48.2 °F 88% 29.75 in 8.0 mi Calm Calm - N/A   Clear
6:50 AM 49 °F 49 °F 100% 29.90 in 5 mi North 2.2 mph - -  
7:43 AM 50.0 °F 50.0 °F 100% 30.18 in 3.0 mi Calm Calm - N/A   Clear
8:42 AM 55.4 °F 53.6 °F 94% 30.20 in 13.0 mi Calm Calm - N/A   Clear
9:42 AM 60.8 °F 51.8 °F 72% 29.83 in 13.0 mi Calm Calm - N/A   Clear
9:50 AM 57 °F 41 °F 44% 30.03 in 7 mi East 4.5 mph - -   Haze
10:42 AM 66.2 °F 51.8 °F 60% 30.23 in 13.0 mi Calm Calm - N/A   Clear
11:46 AM 71.6 °F 48.2 °F 43% 30.22 in 15.0 mi Calm Calm - N/A   Clear
12:45 PM 73 °F 39 °F 19% 30.00 in 7 mi East 2.2 mph - -   Haze
12:45 PM 75.2 °F 42.8 °F 31% 29.76 in 15.0 mi East 6.9 mph - N/A   Clear
1:49 PM 78.8 °F 39.2 °F 24% 30.16 in 15.0 mi East 6.9 mph - N/A   Clear
2:41 PM 78.8 °F 39.2 °F 24% 30.11 in 15.0 mi NE 13.8 mph - N/A   Clear
3:40 PM 78.8 °F 39.2 °F 24% 29.66 in 15.0 mi NE 13.8 mph - N/A   Clear
3:50 PM 79 °F 33 °F 10% 29.84 in 12 mi SE 4.5 mph - -  
4:50 PM 78.8 °F 39.2 °F 24% 30.10 in 15.0 mi East 11.5 mph - N/A   Partly Cloudy
5:47 PM 75.2 °F 37.4 °F 25% 30.11 in 15.0 mi East 13.8 mph - N/A   Partly Cloudy
6:41 PM 69.8 °F 46.4 °F 43% 29.81 in 15.0 mi East 13.8 mph - N/A   Partly Cloudy
6:50 PM 74 °F 43 °F 22% 29.77 in 11 mi East 2.2 mph - -   Haze
7:48 PM 66.2 °F 50.0 °F 56% 30.15 in 12.0 mi ESE 13.8 mph - N/A   Partly Cloudy
8:41 PM 64.4 °F 50.0 °F 59% 30.19 in 12.0 mi ESE 11.5 mph - N/A   Clear
9:41 PM 62.6 °F 51.8 °F 68% 29.87 in 12.0 mi ESE 9.2 mph - N/A   Clear
9:50 PM 65 °F 55 °F 61% 29.76 in 5 mi North 6.7 mph - -  
10:42 PM 60.8 °F 51.8 °F 72% 30.22 in 12.0 mi ESE 6.9 mph - N/A   Clear
11:47 PM 60.8 °F 51.8 °F 72% 30.24 in 12.0 mi ESE 9.2 mph - N/A   Scattered Clouds